Location: Blackwall
(51.5097°N, 0.0016°W)
Time: 23:37:01
(UTC+00:00)

Tsikada Rocket - Pass Details

Date: 15 May 2026
Orbit: 956 x 1009 km, 82.9° (Epoch: 11 June)

Event Time Altitude Azimuth Distance (km) Brightness Sun altitude
Rises 20:36:25 0° 348° (NNW) 3,659 8.0 -7.1°
Reaches altitude 10° 20:38:56 10° 347° (NNW) 2,705 7.3 -7.4°
Maximum altitude 20:45:05 76° 264° (W) 991 4.2 -8.0°
Drops below altitude 10° 20:51:12 10° 180° (S) 2,683 5.9 -8.7°
Enters shadow 20:53:28 - 178° (S) 3,545 6.5 -8.9°
